NOAA-16
1 26536U 00055A 08038.44250907 .00000223 00000-0 14572-3 0 7955
2 26536 099.1452 024.8203 0009944 229.9452 130.0870 14.12469035380311
NOAA-17
1 27453U 02032A 08037.86499517 .00000150 00000-0 83709-4 0 07934
2 27453 098.5525 106.2082 0012707 128.8548 231.3765 14.23947208292111
NOAA-18
1 28654U 05018A 08037.88138072 .00000270 00000-0 17413-3 0 03042
2 28654 098.8550 340.5152 0014012 328.3744 031.6567 14.11136178139959
HUBBLE
1 20580U 90037B 08038.56588070 .00000361 00000-0 15100-4 0 679
2 20580 028.4679 095.1359 0003730 083.7992 276.3023 15.00334450775340
UARS
1 21701U 91063B 08037.95542101 .00006118 00000-0 99964-4 0 03187
2 21701 056.9765 013.4929 0080775 287.7450 071.4749 15.50495868902137
PO-34
1 25520U 98064B 08037.96357392 .00000553 00000-0 17456-4 0 09263
2 25520 028.4609 337.2694 0005236 290.8859 069.1174 15.17128291513213
ISS
1 25544U 98067A 08038.91675674 .00024914 00000-0 14627-3 0 8794
2 25544 051.6408 328.0241 0005540 021.7995 022.6476 15.78101560527974
OO-38
1 26063U 00004C 08037.58871361 -.00000037 00000-0 75955-5 0 01313
2 26063 100.2097 088.3475 0036646 219.9765 139.8720 14.35826536420680
UWE-1
1 28892U 05043C 08037.73831328 .00000111 00000-0 33012-4 0 09697
2 28892 098.1115 294.4147 0018356 098.5096 261.8228 14.59589790121423
CO-58
1 28895U 05043F 08037.64138962 .00000097 00000-0 30025-4 0 09430
2 28895 098.1151 294.6241 0018918 099.2392 261.0938 14.59632126121291
NCUBE2
1 28897U 05043H 08038.71785024 .00000086 00000-0 27522-4 0 4721
2 28897 098.1117 295.6156 0018275 097.5981 262.7294 14.59800017113731
FCAL
1 29667U 06055J 08038.89126955 .00039094 12064-4 75952-4 0 7363
2 29667 051.6332 288.6729 0009253 184.5292 175.5636 16.01006686 65585
FALCON
1 30776U 07006E 08038.90634462 .00000443 00000-0 35424-4 0 2434
2 30776 035.4331 223.5539 0001996 330.0480 030.0121 15.02873237 50534
MAST
1 31126U 07012K 08037.74873558 .00000036 00000-0 18979-4 0 02516
2 31126 098.0558 107.3436 0095309 019.8472 340.6390 14.53397284042929
CAPE1
1 31130U 07012P 08037.77386743 .00000154 00000-0 46518-4 0 02352
2 31130 098.0541 106.6781 0103309 021.7338 338.8196 14.51928558042659
